Tomahawk, WI

10:54 AM CDT on May 23, 2017 (GMT -0500)
Tomahawk

Weather History for KTKV - January, 2014

Change the Weather History Date:

Wednesday, January 8, 2014

  Actual Average (KRHI) Record (KRHI)
Temperature  
Mean Temperature -14 °F -  
Max Temperature 3 °F 18 °F 48 °F (2003)
Min Temperature -31 °F -7 °F -30 °F (1974)
Degree Days  
Heating Degree Days 79    
Moisture  
Dew Point -24 °F    
Average Humidity 69    
Maximum Humidity 80    
Minimum Humidity 55    
Precipitation  
Precipitation 0.00 in - - ()
Sea Level Pressure  
Sea Level Pressure 30.26 in    
Wind  
Wind Speed 1 mph (WNW)    
Max Wind Speed 10 mph    
Max Gust Speed -    
Visibility 10 miles    
Events      
Averages and records for this station are not official NWS values.
T = Trace of Precipitation, MM = Missing Value Source: NWS Daily Summary

Daily Weather History Graph

Daily Weather History Graph

Search for Another Location

Airport or City:

Trip Planner

Search our weather history database for the weather conditions in past years. The results will help you decide how hot, cold, wet, or windy it might be!

Date:

Astronomy

Jan. 08, 2014 Rise Set
Actual Time 7:38 AM CST 4:33 PM CST
Civil Twilight 7:04 AM CST 5:07 PM CST
Nautical Twilight 6:27 AM CST 5:44 PM CST
Astronomical Twilight 5:51 AM CST 6:20 PM CST
Moon 11:35 AM CST (1/8) 12:33 AM CST (1/8)
Length of Visible Light 10h 02m
Length of Day
8h 55m
First Quarter, 56% of the Moon is Illuminated
Jan 8
First Quarter
Jan 15
Full
Jan 23
Last Quarter
Jan 30
New
Feb 6
First Quarter

Hourly Weather History & Observations

Time (CST) Temp. Windchill Dew Point Humidity Pressure Visibility Wind Dir Wind Speed Gust Speed Precip Events Conditions
12:15 AM -25.2 °F - -31.5 °F 72% 30.12 in 10.0 mi Calm Calm - N/A   Clear
12:35 AM -25.4 °F - -31.7 °F 72% 30.12 in 10.0 mi Calm Calm - N/A   Clear
12:55 AM -26.3 °F - -32.6 °F 72% 30.12 in 10.0 mi Calm Calm - N/A   Clear
1:15 AM -27.4 °F - -34.4 °F 69% 30.14 in 10.0 mi Calm Calm - N/A   Clear
1:35 AM -27.2 °F - -34.2 °F 69% 30.14 in 10.0 mi Calm Calm - N/A   Clear
1:55 AM -28.3 °F - -35.0 °F 70% 30.15 in 10.0 mi Calm Calm - N/A   Clear
2:15 AM -28.7 °F - -35.5 °F 70% 30.16 in 10.0 mi Calm Calm - N/A   Clear
2:35 AM -28.3 °F - -35.1 °F 70% 30.16 in 10.0 mi Calm Calm - N/A   Clear
2:55 AM -29.0 °F - -35.5 °F 71% 30.17 in 10.0 mi Calm Calm - N/A   Clear
3:15 AM -29.2 °F - -36.2 °F 69% 30.16 in 10.0 mi Calm Calm - N/A   Clear
3:35 AM -29.4 °F - -36.4 °F 69% 30.15 in 10.0 mi Calm Calm - N/A   Clear
3:55 AM -29.7 °F - -37.1 °F 68% 30.16 in 10.0 mi Calm Calm - N/A   Clear
4:15 AM -30.3 °F - -37.3 °F 69% 30.16 in 10.0 mi Calm Calm - N/A   Clear
4:35 AM -29.4 °F - -36.4 °F 69% 30.16 in 10.0 mi Calm Calm - N/A   Clear
4:55 AM -28.7 °F - -35.7 °F 69% 30.16 in 10.0 mi Calm Calm - N/A   Clear
5:15 AM -29.6 °F - -36.6 °F 69% 30.16 in 10.0 mi Calm Calm - N/A   Clear
5:35 AM -29.7 °F - -37.3 °F 67% 30.16 in 10.0 mi Calm Calm - N/A   Clear
5:55 AM -30.1 °F - -37.3 °F 68% 30.17 in 10.0 mi Calm Calm - N/A   Clear
6:15 AM -30.1 °F - -37.5 °F 68% 30.18 in 10.0 mi Calm Calm - N/A   Clear
6:35 AM -31.0 °F - -38.2 °F 68% 30.19 in 10.0 mi Calm Calm - N/A   Clear
6:55 AM -30.1 °F - -37.5 °F 68% 30.19 in 10.0 mi Calm Calm - N/A   Clear
7:15 AM -29.6 °F - -36.8 °F 68% 30.20 in 10.0 mi Calm Calm - N/A   Clear
7:35 AM -30.5 °F - -38.2 °F 66% 30.21 in 10.0 mi Calm Calm - N/A   Clear
7:55 AM -29.9 °F - -37.3 °F 68% 30.22 in 10.0 mi Calm Calm - N/A   Clear
8:15 AM -29.4 °F - -36.2 °F 70% 30.24 in 10.0 mi Calm Calm - N/A   Clear
8:35 AM -22.2 °F - -28.3 °F 73% 30.25 in 10.0 mi Calm Calm - N/A   Clear
8:55 AM -17.7 °F -32.5 °F -23.1 °F 76% 30.26 in 10.0 mi West 5.8 mph - N/A   Clear
9:15 AM -13.5 °F - -18.6 °F 78% 30.26 in 10.0 mi Calm Calm - N/A   Clear
9:35 AM -11.2 °F -24.8 °F -15.9 °F 80% 30.27 in 10.0 mi West 5.8 mph - N/A   Clear
9:55 AM -8.3 °F -19.6 °F -13.4 °F 79% 30.28 in 10.0 mi WNW 4.6 mph - N/A   Clear
10:15 AM -6.2 °F -20.4 °F -11.6 °F 77% 30.27 in 10.0 mi WNW 6.9 mph - N/A   Clear
10:35 AM -4.9 °F -21.3 °F -11.2 °F 74% 30.28 in 10.0 mi WNW 9.2 mph - N/A   Clear
10:55 AM -3.5 °F - -10.5 °F 72% 30.28 in 10.0 mi Calm Calm - N/A   Clear
11:15 AM -2.4 °F -19.2 °F -10.5 °F 68% 30.28 in 10.0 mi WNW 10.4 mph - N/A   Clear
11:35 AM -1.7 °F -13.5 °F -10.5 °F 66% 30.27 in 10.0 mi NW 5.8 mph - N/A   Clear
11:55 AM -0.8 °F -16.2 °F -10.3 °F 64% 30.27 in 10.0 mi NW 9.2 mph - N/A   Clear
12:15 PM -0.4 °F -15.7 °F -10.3 °F 63% 30.27 in 10.0 mi WNW 9.2 mph - N/A   Clear
12:35 PM 0.5 °F -11.0 °F -9.9 °F 62% 30.26 in 10.0 mi West 5.8 mph - N/A   Clear
12:55 PM 1.4 °F -13.5 °F -9.9 °F 59% 30.26 in 10.0 mi West 9.2 mph - N/A   Clear
1:15 PM 2.1 °F -12.6 °F -10.1 °F 57% 30.27 in 10.0 mi WNW 9.2 mph - N/A   Clear
1:35 PM 2.5 °F -7.0 °F -9.8 °F 57% 30.27 in 10.0 mi WNW 4.6 mph - N/A   Clear
1:55 PM 2.7 °F -10.9 °F -9.8 °F 56% 30.27 in 10.0 mi WNW 8.1 mph - N/A   Clear
2:15 PM 3.0 °F -6.4 °F -9.6 °F 56% 30.27 in 10.0 mi WNW 4.6 mph - N/A   Clear
2:35 PM 3.2 °F - -9.4 °F 56% 30.28 in 10.0 mi Calm Calm - N/A   Clear
2:55 PM 3.2 °F -6.2 °F -9.4 °F 56% 30.29 in 10.0 mi West 4.6 mph - N/A   Clear
3:15 PM 2.8 °F -4.6 °F -9.9 °F 55% 30.29 in 10.0 mi West 3.5 mph - N/A   Clear
3:35 PM 2.3 °F -10.2 °F -10.1 °F 56% 30.30 in 10.0 mi WNW 6.9 mph - N/A   Clear
3:55 PM 1.9 °F -10.6 °F -10.1 °F 57% 30.31 in 10.0 mi WNW 6.9 mph - N/A   Clear
4:15 PM 0.7 °F - -10.8 °F 58% 30.31 in 10.0 mi Calm Calm - N/A   Clear
4:35 PM -0.2 °F - -10.1 °F 63% 30.31 in 10.0 mi Calm Calm - N/A   Clear
4:55 PM -4.0 °F - -12.3 °F 68% 30.32 in 10.0 mi Calm Calm - N/A   Clear
5:15 PM -5.8 °F - -14.8 °F 65% 30.32 in 10.0 mi Calm Calm - N/A   Clear
5:35 PM -8.5 °F - -14.1 °F 77% 30.33 in 10.0 mi Calm Calm - N/A   Clear
5:55 PM -9.9 °F - -15.2 °F 78% 30.34 in 10.0 mi Calm Calm - N/A   Clear
6:15 PM -10.8 °F - -15.5 °F 80% 30.34 in 10.0 mi Calm Calm - N/A   Clear
6:35 PM -13.0 °F - -18.4 °F 77% 30.34 in 10.0 mi Calm Calm - N/A   Clear
6:55 PM -12.8 °F - -17.5 °F 80% 30.35 in 10.0 mi Calm Calm - N/A   Clear
7:15 PM -15.2 °F - -20.2 °F 78% 30.35 in 10.0 mi Calm Calm - N/A   Clear
7:35 PM -16.2 °F - -21.8 °F 76% 30.36 in 10.0 mi Calm Calm - N/A   Clear
7:55 PM -17.5 °F - -22.9 °F 76% 30.37 in 10.0 mi Calm Calm - N/A   Clear
8:15 PM -16.8 °F - -21.6 °F 79% 30.36 in 10.0 mi Calm Calm - N/A   Clear
8:35 PM -20.4 °F - -26.3 °F 74% 30.37 in 10.0 mi Calm Calm - N/A   Clear
8:55 PM -20.7 °F - -26.9 °F 73% 30.37 in 10.0 mi Calm Calm - N/A   Clear
9:15 PM -17.3 °F - -22.7 °F 76% 30.38 in 10.0 mi Calm Calm - N/A   Clear
9:35 PM -21.3 °F - -27.4 °F 73% 30.37 in 10.0 mi Calm Calm - N/A   Clear
9:55 PM -20.9 °F - -26.9 °F 74% 30.37 in 10.0 mi Calm Calm - N/A   Clear
10:15 PM -23.3 °F - -29.0 °F 74% 30.38 in 10.0 mi Calm Calm - N/A   Clear
10:35 PM -23.6 °F - -29.4 °F 74% 30.38 in 10.0 mi Calm Calm - N/A   Clear
10:55 PM -22.2 °F - -27.9 °F 75% 30.38 in 10.0 mi Calm Calm - N/A   Clear
11:15 PM -22.4 °F - -28.3 °F 74% 30.37 in 10.0 mi Calm Calm - N/A   Clear
11:35 PM -24.5 °F - -30.3 °F 74% 30.36 in 10.0 mi Calm Calm - N/A   Clear
11:55 PM -26.7 °F - -33.2 °F 71% 30.36 in 10.0 mi Calm Calm - N/A   Clear